Regional Weather Roundup
Issued by NWS Mobile, AL

Home | Current Version | Previous Version | Text Only | Print | Product List | Glossary On
Versions: 1 2 3 4 5 6 7 8 9 10 11 12 13 14 15 16 17 18 19 20 21 22 23 24 25 26 27
000
ASUS44 KMOB 230910
RWRMOB
REGIONAL WEATHER ROUNDUP
NATIONAL WEATHER SERVICE MOBILE AL
400 AM CDT THU OCT 23 2014

NOTE: "FAIR" INDICATES FEW OR NO CLOUDS BELOW 12,000 FEET WITH NO
      SIGNIFICANT WEATHER AND/OR OBSTRUCTIONS TO VISIBILITY.

  * THESE STATIONS ARE PART OF THE UNIVERSITY OF SOUTH ALABAMA
    MESONET AND ARE NOT UNDER NWS OR FAA QUALITY CONTROL.

ALZ061>064-231000-
COASTAL ALABAMA

CITY           SKY/WX    TMP DP  RH WIND       PRES   REMARKS
MOBILE REG APT CLEAR     49  45  86 N6        30.08R
BROOKLEY FIELD CLEAR     49  46  90 NW6       30.08S
USA CAMPUS*      N/A     48  45  87 CALM      30.09S
DOG RIVER*     NOT AVBL


CITY           SKY/WX    TMP DP  RH WIND       PRES   REMARKS
MOUNT VERNON*    N/A     39  37  93 CALM      30.09S
SARALAND*      NOT AVBL
BAY MINETTE*   NOT AVBL
LOXLEY*          N/A     46  43  87 VRB3      30.07R
ROBERTSDALE*     N/A     48  45  87 NE2       30.06R
FAIRHOPE*        N/A     50  45  81 NE5       30.06R
ELBERTA*         N/A     50  45  81 N5        30.05R
FOLEY*           N/A     46  43  87 CALM      30.04S
GRAND BAY*       N/A     45  43  93 CALM      30.05S
DAUPHIN ISLND* NOT AVBL
BON SCOUR NWR* NOT AVBL
GULF SHORES    CLEAR     50  44  80 N3        30.05R

$$

ALZ051>060-231000-
INTERIOR SOUTHWEST AND SOUTH CENTRAL ALABAMA

CITY           SKY/WX    TMP DP  RH WIND       PRES   REMARKS
GREENVILLE     CLEAR     45  41  86 CALM      30.07F
EVERGREEN      CLEAR     44  41  89 CALM      30.07F
CASTLEBERRY*   NOT AVBL
ATMORE*          N/A     46  43  87 VRB6      30.08S
DIXIE*           N/A     46  45  93 CALM      30.04F
ANDALUSIA/OPP  CLEAR     52  43  71 E3        30.06F
ANDALUSIA*       N/A     50  45  81 E5        30.05F
FLORALA APT    CLEAR     45  42  89 N5        30.07F
FLORALA*         N/A     46  43  87 CALM      30.04S

$$

FLZ001>006-231000-
WESTERN FLORIDA PANHANDLE

CITY           SKY/WX    TMP DP  RH WIND       PRES   REMARKS
PENSACOLA      CLEAR     56  45  66 NE7       30.04F
NAS PENSACOLA  CLEAR     50  45  83 N5        30.04S
MILTON         CLEAR     50  42  74 NE6       30.05F
WHTNG S FIELD  CLEAR     52  43  71 NE7       30.05F


CITY           SKY/WX    TMP DP  RH WIND       PRES   REMARKS
WALNUT HILL*   NOT AVBL
JAY*             N/A     50  43  76 NE5       30.06F
DUKE FIELD     CLEAR     43  41  93 CALM      30.05S
CRESTVIEW      CLEAR     45  43  93 NE3       30.07S
VALPARAISO     CLEAR     50  44  78 N8        30.05S
DESTIN         CLEAR     58  49  72 NE5       30.05R

$$

MSZ076-079-231000-
INTERIOR SOUTHEAST MISSISSIPPI

CITY           SKY/WX    TMP DP  RH WIND       PRES   REMARKS
LEAKESVILLE*     N/A     48  43  81 NE6       30.09S
AGRICOLA*      NOT AVBL

$$

MARINE OBSERVATIONS

STATION/POSITION TIME  TEMP    WIND        PRES    WAVE
                       AIR SEA DIR/SP/G            HT/PER
                 (UTC) (F)     (DEG/KT/KT) (MB)    (FT/S)
PASCAGOULA       0900   57      20/  7/  9 1017.5F
PETIT BOIS ISLND 0900   61      20/ 13/ 16 1017.6F
GRAND BAY        0800   53     360/  5     1018.0F
KATRINA CUT      0800   66      60/ 20     1017.6S
CEDAR POINT      0800   65      50/ 15     1017.6R
E DAUPHIN ISLAND 0800   64      40/ 15/ 18 1017.9F
MIDDLE BAY LIGHT 0800   63      50/ 18     1017.3R
USCG MOBILE BAY  0900   53 75  360/  4/  5 1016.9F
STATE DOCKS      0900   54 74              1018.1S
MEAHER PARK      0800   54     350/  4     1018.6R
WEEKS BAY        0800   50                   N/A
FORT MORGAN      0900   63      80/ 16/ 19 1016.9F
12 S ORANGE BCH  0900   67 78   30/ 16/ 17 1016.4S   3/ 5
PENSACOLA BAY    0900   60 72   40/  6/ 10 1017.3S
64 S DAUPHIN ISL 0844   72 78   50/ 16/ 19 1016.5F   5/ 6
67 S FORT MORGAN 0700   73                 1015.6F

$$

SELECTED LOCATIONS ACROSS THE REGION

CITY           SKY/WX    TMP DP  RH WIND       PRES   REMARKS
NEW ORLEANS    CLEAR     64  49  57 E12       30.05F
GULFPORT       CLEAR     53  45  74 NE6       30.06S
PASCAGOULA AP  CLEAR     42  42 100 CALM      30.07S
PASCAGOULA*      N/A     54  45  71 N7        30.06S
HATTIESBURG    CLEAR     45  44  97 CALM      30.11S
LAUREL         CLEAR     48  41  76 N7        30.11S
MERIDIAN       CLEAR     43  41  93 CALM      30.12S
JACKSON        CLEAR     45  43  93 NE5       30.11F
MONTGOMERY     CLEAR     47  41  80 NE3       30.09F
TROY           CLEAR     40  38  93 CALM      30.09R
KINSTON*       NOT AVBL
GENEVA*          N/A     48  43  81 NE3       30.08S
ASHFORD*         N/A     50  45  81 E5        30.05F
DOTHAN         CLEAR     46  43  89 NE7       30.09S
PANAMA CITY    CLEAR     50  45  83 N5        30.03R

$$




USA.gov is the U.S. government's official web portal to all federal, state and local government web resources and services.